Overview Statistics Trail Chart Weather Telemetry Raw packets
 

This is the latest recevied weather packets stored in our database for station/object IU5GBO-13. If no packets are shown the sender has not sent any weather packets the latest 10 day(s).

<< 1 2 3 4 >>
Time Temp. Humidity Pressure Rain* Wind** Luminosity Snow
1788572019 20° C 64% 1018.8 hPa - - - -
1788571419 20° C 64% 1018.8 hPa - - - -
1788570820 20° C 65% 1018.9 hPa - - - -
1788570219 20.56° C 63% 1018.7 hPa - - - -
1788569620 20° C 64% 1018.8 hPa - - - -
1788569019 20.56° C 63% 1018.8 hPa - - - -
1788568419 21.11° C 62% 1018.8 hPa - - - -
1788567820 20.56° C 63% 1019 hPa - - - -
1788567219 21.11° C 62% 1019.1 hPa - - - -
1788566619 21.11° C 63% 1019.1 hPa - - - -
1788566019 21.11° C 62% 1019.1 hPa - - - -
1788565419 21.67° C 62% 1019.3 hPa - - - -
1788564219 21.67° C 62% 1019.3 hPa - - - -
1788563619 21.67° C 62% 1019.4 hPa - - - -
1788563020 22.22° C 61% 1019.5 hPa - - - -
1788562419 22.22° C 60% 1019.5 hPa - - - -
1788561819 22.22° C 60% 1019.4 hPa - - - -
1788561219 22.78° C 59% 1019.5 hPa - - - -
1788560619 22.78° C 59% 1019.4 hPa - - - -
1788560019 22.78° C 58% 1019.6 hPa - - - -
1788559419 22.22° C 60% 1019.4 hPa - - - -
1788558820 22.78° C 60% 1019.4 hPa - - - -
1788558219 23.33° C 61% 1019.4 hPa - - - -
1788557619 23.33° C 61% 1019.4 hPa - - - -
1788557019 23.89° C 59% 1019.5 hPa - - - -

* Rain since midnight (hover to see other rain measurements)
** Current wind speed in m/s (hover to see current wind gust speed)